Weather History for LKCV - March, 2012

Change the Weather History Date:

Friday, March 9, 2012

  Actual Average Record
Temperature  
Mean Temperature 38 °F -  
Max Temperature 44 °F - - ()
Min Temperature 32 °F - - ()
Degree Days  
Heating Degree Days 27    
Moisture  
Dew Point 31 °F    
Average Humidity 79    
Maximum Humidity 93    
Minimum Humidity 53    
Precipitation  
Precipitation 0.00 in - - ()
Sea Level Pressure  
Sea Level Pressure 30.57 in    
Wind  
Wind Speed 6 mph ()    
Max Wind Speed 14 mph    
Max Gust Speed -    
Visibility 6.2 miles    
Events      
T = Trace of Precipitation, MM = Missing Value Source: Averaged Metar Reports

Daily Weather History Graph

Daily Weather History Graph

Search for Another Location

Airport or City:

Trip Planner

Search our weather history database for the weather conditions in past years. The results will help you decide how hot, cold, wet, or windy it might be!

Date:

Astronomy

Mar. 09, 2012 Rise Set
Actual Time 6:24 AM CET 5:54 PM CET
Civil Twilight 5:52 AM CET 6:26 PM CET
Nautical Twilight 5:14 AM CET 7:03 PM CET
Astronomical Twilight 4:36 AM CET 7:42 PM CET
Moon 7:49 PM CET (3/9) 6:20 AM CET (3/9)
Length of Visible Light 12h 34m
Length of Day
11h 29m
Full, 98% of the Moon is Illuminated
Mar 9
Full
Mar 15
Last Quarter
Mar 22
New
Mar 30
First Quarter
Apr 6
Full

Hourly Weather History & Observations

Time (CET) Temp. Windchill Dew Point Humidity Pressure Visibility Wind Dir Wind Speed Gust Speed Precip Events Conditions
12:00 AM 35.6 °F 32.8 °F 33.8 °F 93% 30.42 in 6.2 mi WNW 3.5 mph - N/A   Overcast
1:00 AM 35.6 °F 29.2 °F 32.0 °F 87% 30.45 in - NW 8.1 mph - N/A   Clear
2:00 AM 35.6 °F 28.6 °F 32.0 °F 87% 30.48 in - NW 9.2 mph - N/A   Clear
3:00 AM 35.6 °F 28.0 °F 32.0 °F 87% 30.48 in - WNW 10.4 mph - N/A   Clear
4:00 AM 33.8 °F 27.0 °F 32.0 °F 93% 30.51 in - WNW 8.1 mph - N/A   Clear
5:00 AM 33.8 °F 26.4 °F 30.2 °F 87% 30.51 in - WNW 9.2 mph - N/A   Clear
6:00 AM 32.0 °F 27.5 °F 30.2 °F 93% 30.54 in 6.2 mi NW 4.6 mph - N/A   Scattered Clouds
7:00 AM 32.0 °F 27.5 °F 30.2 °F 93% 30.57 in 6.2 mi WNW 4.6 mph - N/A   Scattered Clouds
8:00 AM 33.8 °F 29.6 °F 32.0 °F 93% 30.57 in - WNW 4.6 mph - N/A   Clear
9:00 AM 37.4 °F 31.4 °F 33.8 °F 87% 30.60 in - NW 8.1 mph - N/A   Clear
10:00 AM 39.2 °F 32.0 °F 35.6 °F 87% 30.60 in 6.2 mi WNW 11.5 mph - N/A   Scattered Clouds
11:00 AM 42.8 °F 35.8 °F 35.6 °F 76% 30.63 in 6.2 mi WNW 13.8 mph - N/A   Mostly Cloudy
12:00 PM 42.8 °F 37.0 °F 33.8 °F 70% 30.63 in 6.2 mi NW 10.4 mph - N/A   Mostly Cloudy
1:00 PM 42.8 °F 37.5 °F 32.0 °F 66% 30.63 in 6.2 mi NW 9.2 mph - N/A   Mostly Cloudy
2:00 PM 42.8 °F 38.6 °F 32.0 °F 66% 30.60 in 6.2 mi NNW 6.9 mph - N/A   Scattered Clouds
3:00 PM 44.6 °F 41.4 °F 28.4 °F 53% 30.60 in 6.2 mi NNW 5.8 mph - N/A   Scattered Clouds
4:00 PM 44.6 °F 41.4 °F 28.4 °F 53% 30.60 in 6.2 mi NW 5.8 mph - N/A   Scattered Clouds
5:00 PM 44.6 °F 42.2 °F 28.4 °F 53% 30.60 in - NW 4.6 mph - N/A   Clear
6:00 PM 42.8 °F - 28.4 °F 57% 30.60 in - East 2.3 mph - N/A   Clear
7:00 PM 39.2 °F - 28.4 °F 65% 30.60 in - SE 2.3 mph - N/A   Clear
8:00 PM 33.8 °F - 28.4 °F 81% 30.60 in - Variable 2.3 mph - N/A   Clear
9:00 PM 32.0 °F - 28.4 °F 87% 30.60 in - Variable 1.2 mph - N/A   Clear
10:00 PM 32.0 °F - 28.4 °F 87% 30.60 in - ESE 2.3 mph - N/A   Clear
11:00 PM 32.0 °F 28.7 °F 28.4 °F 87% 30.60 in - East 3.5 mph - N/A   Clear